Location: Los Ranchitos
(37.9930°N, 122.5425°W)
Time: 07:41:11
(UTC+00:00)

MOS 1 Rocket - Pass Details

Date: 21 September 2020
Orbit: 614 x 831 km, 97.4° (Epoch: 29 October)

Event Time Altitude Azimuth Distance (km) Brightness Sun altitude
Rises 03:16:08 0° 11° (NNE) 2,967 6.6 -13.9°
Reaches altitude 10° 03:18:23 10° 12° (NNE) 2,030 5.7 -14.4°
Maximum altitude 03:22:47 88° 100° (E) 627 3.0 -15.2°
Drops below altitude 10° 03:27:02 10° 192° (SSW) 1,966 5.6 -16.0°
Sets 03:29:11 0° 193° (SSW) 2,865 6.5 -16.4°
